User: anonymous   Login
Location: Unspecified
(0.0000°N, 0.0000°E)
Time: 02:35:41
(UTC+00:00)
Language:

USA 176 - Orbit

View from above orbital plane
View from above orbital plane
View from above satellite
View from above satellite

Ground track
Ground track

The orbit data is extracted from the following two-line orbital elements,

1 28158U 04004A   14354.71490011 0.00000000  00000-0  00000-0 0    05
2 28158   6.3105  52.5581 0004123 218.6497 141.4033  1.00270000    00
Epoch (UTC): 20 December 2014 17:09:27
Eccentricity: 0.0004123
inclination: 6.3105°
perigee height: 35769 km
apogee height: 35804 km
right ascension of ascending node: 52.5581°
argument of perigee: 218.6497°
revolutions per day: 1.00270000
mean anomaly at epoch: 141.4033°
orbit number at epoch: 0

The dashed part of the orbit path shows where the satellite is in the earth's shadow,  

DLR